Time,TemperatureF,DewpointF,PressureIn,WindDirection,WindDirectionDegrees,WindSpeedMPH,WindSpeedGustMPH,Humidity,HourlyPrecipIn,Conditions,Clouds,dailyrainin,SoftwareType,DateUTC
2013-08-06 00:33:00,70.0,-99.9,29.98,SW,215,-999.0,8.0,-999,0.00,,,-99.99,,2013-08-06 04:33:00,
2013-08-06 00:44:00,70.0,-99.9,29.98,SW,215,-999.0,8.0,-999,0.00,,,-99.99,,2013-08-06 04:44:00,
2013-08-06 00:53:00,69.0,-99.9,29.99,SSW,199,-999.0,-999.0,-999,0.00,,,-99.99,,2013-08-06 04:53:00,
2013-08-06 01:32:00,69.0,-99.9,29.99,SSW,199,-999.0,-999.0,-999,0.00,,,-99.99,,2013-08-06 05:32:00,
2013-08-06 01:43:00,69.0,-99.9,29.99,SSW,199,-999.0,-999.0,-999,0.00,,,-99.99,,2013-08-06 05:43:00,
2013-08-06 02:32:00,67.0,-99.9,29.99,SSW,198,-999.0,-999.0,-999,0.00,,,-99.99,,2013-08-06 06:32:00,
2013-08-06 02:43:00,67.0,-99.9,29.99,SSW,198,-999.0,-999.0,-999,0.00,,,-99.99,,2013-08-06 06:43:00,
2013-08-06 02:52:00,67.0,-99.9,29.99,SSW,198,-999.0,-999.0,-999,0.00,,,-99.99,,2013-08-06 06:52:00,
2013-08-06 02:53:00,67.0,-99.9,29.99,WSW,239,-999.0,-999.0,-999,0.00,,,-99.99,,2013-08-06 06:53:00,
2013-08-06 03:32:00,67.0,-99.9,29.99,WSW,239,-999.0,-999.0,-999,0.00,,,-99.99,,2013-08-06 07:32:00,
2013-08-06 03:44:00,67.0,-99.9,29.99,WSW,239,-999.0,-999.0,-999,0.00,,,-99.99,,2013-08-06 07:44:00,
2013-08-06 04:33:00,66.0,-99.9,30.00,WNW,285,6.0,9.0,-999,0.00,,,-99.99,,2013-08-06 08:33:00,
2013-08-06 04:43:00,66.0,-99.9,30.00,WNW,285,6.0,9.0,-999,0.00,,,-99.99,,2013-08-06 08:43:00,
2013-08-06 04:52:00,66.0,-99.9,30.00,WNW,285,6.0,9.0,-999,0.00,,,-99.99,,2013-08-06 08:52:00,
2013-08-06 05:33:00,65.0,-99.9,30.01,NW,318,6.0,9.0,-999,0.00,,,-99.99,,2013-08-06 09:33:00,
2013-08-06 05:43:00,65.0,-99.9,30.01,NW,318,6.0,9.0,-999,0.00,,,-99.99,,2013-08-06 09:43:00,
2013-08-06 05:52:00,65.0,-99.9,30.01,NW,318,6.0,9.0,-999,0.00,,,-99.99,,2013-08-06 09:52:00,
2013-08-06 05:53:00,65.0,-99.9,30.01,North,355,2.0,7.0,-999,0.00,,,-99.99,,2013-08-06 09:53:00,
2013-08-06 06:32:00,65.0,-99.9,30.01,North,355,2.0,7.0,-999,0.00,,,-99.99,,2013-08-06 10:32:00,
2013-08-06 06:43:00,65.0,-99.9,30.01,North,355,2.0,7.0,-999,0.00,,,-99.99,,2013-08-06 10:43:00,
2013-08-06 06:53:00,65.0,-99.9,30.02,North,352,4.0,5.0,-999,0.00,,,-99.99,,2013-08-06 10:53:00,
2013-08-06 07:32:00,65.0,-99.9,30.02,North,352,4.0,5.0,-999,0.00,,,-99.99,,2013-08-06 11:32:00,
2013-08-06 07:43:00,65.0,-99.9,30.02,North,352,4.0,5.0,-999,0.00,,,-99.99,,2013-08-06 11:43:00,
2013-08-06 08:32:00,68.0,-99.9,30.03,WNW,285,-999.0,-999.0,-999,0.00,,,-99.99,,2013-08-06 12:32:00,
2013-08-06 08:43:00,68.0,-99.9,30.03,WNW,285,-999.0,-999.0,-999,0.00,,,-99.99,,2013-08-06 12:43:00,
2013-08-06 08:52:00,68.0,-99.9,30.03,WNW,285,-999.0,-999.0,-999,0.00,,,-99.99,,2013-08-06 12:52:00,
2013-08-06 08:53:00,70.0,-99.9,30.03,East,87,-999.0,6.0,-999,0.00,,,-99.99,,2013-08-06 12:53:00,
2013-08-06 09:32:00,70.0,-99.9,30.03,East,87,-999.0,6.0,-999,0.00,,,-99.99,,2013-08-06 13:32:00,
2013-08-06 09:42:00,70.0,-99.9,30.03,East,87,-999.0,6.0,-999,0.00,,,-99.99,,2013-08-06 13:42:00,
2013-08-06 09:53:00,71.0,-99.9,30.04,SE,133,6.0,7.0,-999,0.00,,,-99.99,,2013-08-06 13:53:00,
2013-08-06 10:32:00,71.0,-99.9,30.04,SE,133,6.0,7.0,-999,0.00,,,-99.99,,2013-08-06 14:32:00,
2013-08-06 10:42:00,71.0,-99.9,30.04,SE,133,6.0,7.0,-999,0.00,,,-99.99,,2013-08-06 14:42:00,
2013-08-06 11:33:00,74.0,-99.9,30.04,South,173,5.0,9.0,-999,0.00,,,-99.99,,2013-08-06 15:33:00,
2013-08-06 11:44:00,74.0,-99.9,30.04,South,173,5.0,9.0,-999,0.00,,,-99.99,,2013-08-06 15:44:00,
2013-08-06 11:52:00,74.0,-99.9,30.04,South,173,5.0,9.0,-999,0.00,,,-99.99,,2013-08-06 15:52:00,
2013-08-06 12:32:00,73.0,-99.9,30.05,SSE,163,7.0,9.0,-999,0.00,,,-99.99,,2013-08-06 16:32:00,
2013-08-06 12:43:00,73.0,-99.9,30.05,SSE,163,7.0,9.0,-999,0.00,,,-99.99,,2013-08-06 16:43:00,
2013-08-06 12:52:00,73.0,-99.9,30.05,SSE,163,7.0,9.0,-999,0.00,,,-99.99,,2013-08-06 16:52:00,
2013-08-06 13:32:00,74.0,-99.9,30.06,South,177,7.0,10.0,-999,0.00,,,-99.99,,2013-08-06 17:32:00,
2013-08-06 13:44:00,74.0,-99.9,30.06,South,177,7.0,10.0,-999,0.00,,,-99.99,,2013-08-06 17:44:00,
2013-08-06 13:52:00,74.0,-99.9,30.06,South,177,7.0,10.0,-999,0.00,,,-99.99,,2013-08-06 17:52:00,
2013-08-06 14:32:00,75.0,-99.9,30.06,SSW,199,7.0,13.0,-999,0.00,,,-99.99,,2013-08-06 18:32:00,
2013-08-06 14:44:00,75.0,-99.9,30.06,SSW,199,7.0,13.0,-999,0.00,,,-99.99,,2013-08-06 18:44:00,
2013-08-06 14:52:00,75.0,-99.9,30.06,SSW,199,7.0,13.0,-999,0.00,,,-99.99,,2013-08-06 18:52:00,
2013-08-06 15:32:00,74.0,-99.9,30.05,SSW,209,10.0,14.0,-999,0.00,,,-99.99,,2013-08-06 19:32:00,
2013-08-06 15:42:00,74.0,-99.9,30.05,SSW,209,10.0,14.0,-999,0.00,,,-99.99,,2013-08-06 19:42:00,
2013-08-06 15:52:00,74.0,-99.9,30.05,SSW,209,10.0,14.0,-999,0.00,,,-99.99,,2013-08-06 19:52:00,
2013-08-06 16:32:00,73.0,-99.9,30.04,SSW,208,10.0,14.0,-999,0.00,,,-99.99,,2013-08-06 20:32:00,
2013-08-06 16:44:00,73.0,-99.9,30.04,SSW,208,10.0,14.0,-999,0.00,,,-99.99,,2013-08-06 20:44:00,
2013-08-06 16:52:00,73.0,-99.9,30.04,SSW,208,10.0,14.0,-999,0.00,,,-99.99,,2013-08-06 20:52:00,
2013-08-06 16:53:00,74.0,-99.9,30.05,SSW,206,7.0,14.0,-999,0.00,,,-99.99,,2013-08-06 20:53:00,
2013-08-06 17:32:00,74.0,-99.9,30.05,SSW,206,7.0,14.0,-999,0.00,,,-99.99,,2013-08-06 21:32:00,
2013-08-06 17:43:00,74.0,-99.9,30.05,SSW,206,7.0,14.0,-999,0.00,,,-99.99,,2013-08-06 21:43:00,
2013-08-06 17:53:00,73.0,-99.9,30.04,South,186,9.0,13.0,-999,0.00,,,-99.99,,2013-08-06 21:53:00,
2013-08-06 18:32:00,73.0,-99.9,30.04,South,186,9.0,13.0,-999,0.00,,,-99.99,,2013-08-06 22:32:00,
2013-08-06 18:43:00,73.0,-99.9,30.04,South,186,9.0,13.0,-999,0.00,,,-99.99,,2013-08-06 22:43:00,
2013-08-06 19:33:00,73.0,-99.9,30.05,SW,215,9.0,12.0,-999,0.00,,,-99.99,,2013-08-06 23:33:00,
2013-08-06 19:43:00,73.0,-99.9,30.05,SW,215,9.0,12.0,-999,0.00,,,-99.99,,2013-08-06 23:43:00,
2013-08-06 19:52:00,73.0,-99.9,30.05,SW,215,9.0,12.0,-999,0.00,,,-99.99,,2013-08-06 23:52:00,
2013-08-06 20:32:00,73.0,-99.9,30.05,SSW,213,6.0,10.0,-999,0.00,,,-99.99,,2013-08-07 00:32:00,
2013-08-06 20:43:00,73.0,-99.9,30.05,SSW,213,6.0,10.0,-999,0.00,,,-99.99,,2013-08-07 00:43:00,
2013-08-06 20:52:00,73.0,-99.9,30.05,SSW,213,6.0,10.0,-999,0.00,,,-99.99,,2013-08-07 00:52:00,
2013-08-06 21:53:00,71.0,-99.9,30.06,West,269,5.0,8.0,-999,0.00,,,-99.99,,2013-08-07 01:53:00,
2013-08-06 22:33:00,71.0,-99.9,30.06,West,269,5.0,8.0,-999,0.00,,,-99.99,,2013-08-07 02:33:00,
2013-08-06 22:43:00,71.0,-99.9,30.06,West,269,5.0,8.0,-999,0.00,,,-99.99,,2013-08-07 02:43:00,
2013-08-06 23:32:00,71.0,-99.9,30.06,SW,235,8.0,10.0,-999,0.00,,,-99.99,,2013-08-07 03:32:00,
2013-08-06 23:43:00,71.0,-99.9,30.06,SW,235,8.0,10.0,-999,0.00,,,-99.99,,2013-08-07 03:43:00,
2013-08-06 23:52:00,71.0,-99.9,30.06,SW,235,8.0,10.0,-999,0.00,,,-99.99,,2013-08-07 03:52:00,